Find OPS 8790

NORAD ID: 10787 Int'l Des: 1978-038 Owner: NRO/CIA Country: US operational
MEOCIRCULAR

Aktuelle Ansicht

3D-Globus wird geladen...

Über OPS 8790

Beschreibung wird geladen...

Nächste Überflüge

Passes for default location (London). Set your location on the main map for personalized predictions.

Höhenverlauf

Loading altitude history...

Zweizeiliger Elementsatz

1 10787U 78038A 26150.09291218 -.00000256 00000-0 00000+0 0 9998
2 10787 3.6271 324.3617 0011812 288.3590 116.9313 1.00501339 25089
Epoch: 30. Mai 2026 • Age: 11 hours

Aktueller Status

Höhe 35715.6 km
Geschwindigkeit 3.08 km/s
Subsatellitenpunkt -1.59°S, 88.76°E
Startdatum 7. Apr. 1978
Alter 48.1 years
Typ other

Technische Details

Klassifizierung Payload
Masse 700.00 kg
Trockenmasse 300.00 kg
Gesamtmasse 700.00 kg
Länge 8.00 m
Durchmesser 1.50 m
Spannweite 15.00 m
Form Cyl + Dish
Hersteller TRW
Bus-Typ RHYOLITE
Phasenstatus Unknown Transfer Status
Besitzer/Staat NRO/CIA/US

Most Searched